Fresno, CA

5:02 AM PST on November 15, 2019 (GMT -0800)
Fresno Yosemite International

Weather History for KFAT - September, 2019

Change the Weather History Date:

Wednesday, September 4, 2019

  Actual Average Record
Temperature  
Mean Temperature 88 °F 79 °F  
Max Temperature 102 °F 94 °F 107 °F (1955)
Min Temperature 74 °F 64 °F 51 °F (1912)
Degree Days  
Heating Degree Days 0    
Month to date heating degree days 0  
Since 1 July heating degree days 0  
Cooling Degree Days 23    
Month to date cooling degree days 91  
Year to date cooling degree days 2032  
Growing Degree Days 38 (Base 50)    
Moisture  
Dew Point 53 °F    
Average Humidity 33    
Maximum Humidity 49    
Minimum Humidity 17    
Precipitation  
Precipitation 0.00 in 0.01 in 0.92 in (1978)
Month to date precipitation 0.00 0.01  
Year to date precipitation 9.52 7.87  
Snow  
Snow 0.00 in - - ()
Month to date snowfall 0.0  
Since 1 July snowfall 0.0  
Since 1 September snowfall 0.0  
Snow Depth 0.00 in    
Sea Level Pressure  
Sea Level Pressure 29.82 in    
Wind  
Wind Speed 5 mph (NW)    
Max Wind Speed 12 mph    
Max Gust Speed 14 mph    
Visibility 10 miles    
Events      
T = Trace of Precipitation, MM = Missing Value Source: NWS Daily Summary

Daily Weather History Graph

Daily Weather History Graph

Search for Another Location

Airport or City:

Astronomy

Sep. 04, 2019 Rise Set
Actual Time 6:32 AM PDT 7:22 PM PDT
Civil Twilight 6:05 AM PDT 7:49 PM PDT
Nautical Twilight 5:34 AM PDT 8:20 PM PDT
Astronomical Twilight 5:02 AM PDT 8:52 PM PDT
Moon 12:29 PM PDT (9/4) 11:10 PM PDT (9/4)
Length of Visible Light 13h 43m
Length of Day
12h 50m
Waxing Crescent, 36% of the Moon is Illuminated
Sep 4
Waxing Crescent
Sep 5
First Quarter
Sep 13
Full
Sep 21
Last Quarter
Sep 28
New

Hourly Weather History & Observations

Time (PDT) Temp. Heat Index Dew Point Humidity Pressure Visibility Wind Dir Wind Speed Gust Speed Precip Events Conditions
12:53 AM 80.1 °F 79.9 °F 53.1 °F 39% 29.84 in 10.0 mi NW 6.9 mph - N/A   Partly Cloudy
1:53 AM 78.1 °F - 53.1 °F 42% 29.84 in 10.0 mi NW 8.1 mph - N/A   Clear
2:53 AM 75.9 °F - 53.1 °F 45% 29.83 in 10.0 mi NNW 5.8 mph - N/A   Partly Cloudy
3:53 AM 75.0 °F - 53.1 °F 46% 29.83 in 10.0 mi NNW 4.6 mph - N/A   Partly Cloudy
4:53 AM 73.9 °F - 52.0 °F 46% 29.83 in 10.0 mi Calm Calm - N/A   Partly Cloudy
5:53 AM 73.9 °F - 53.1 °F 48% 29.83 in 10.0 mi NNW 3.5 mph - N/A   Clear
6:53 AM 73.9 °F - 53.1 °F 48% 29.85 in 10.0 mi NNW 3.5 mph - N/A   Mostly Cloudy
7:53 AM 77.0 °F - 53.1 °F 43% 29.85 in 10.0 mi ESE 3.5 mph - N/A   Mostly Cloudy
8:53 AM 81.0 °F 80.5 °F 54.0 °F 39% 29.86 in 10.0 mi ESE 4.6 mph - N/A   Scattered Clouds
9:53 AM 84.9 °F 83.3 °F 54.0 °F 34% 29.87 in 10.0 mi SSW 3.5 mph - N/A   Scattered Clouds
10:53 AM 88.0 °F 85.9 °F 54.0 °F 31% 29.87 in 10.0 mi ESE 5.8 mph - N/A   Scattered Clouds
11:53 AM 91.0 °F 88.7 °F 54.0 °F 28% 29.85 in 10.0 mi WNW 3.5 mph - N/A   Scattered Clouds
12:53 PM 95.0 °F 92.5 °F 53.1 °F 24% 29.83 in 10.0 mi WNW 3.5 mph - N/A   Scattered Clouds
1:53 PM 97.0 °F - 52.0 °F 22% 29.81 in 10.0 mi West 4.6 mph - N/A   Scattered Clouds
2:53 PM 100.9 °F - 51.1 °F 19% 29.79 in 10.0 mi West 3.5 mph - N/A   Scattered Clouds
3:53 PM 100.9 °F - 51.1 °F 19% 29.77 in 10.0 mi Calm Calm - N/A   Scattered Clouds
4:53 PM 100.9 °F - 51.1 °F 19% 29.76 in 10.0 mi WNW 5.8 mph - N/A   Scattered Clouds
5:53 PM 100.9 °F - 51.1 °F 19% 29.75 in 10.0 mi NW 9.2 mph - N/A   Scattered Clouds
6:53 PM 100.0 °F - 48.9 °F 18% 29.75 in 10.0 mi NW 8.1 mph - N/A   Scattered Clouds
7:53 PM 97.0 °F - 48.9 °F 19% 29.77 in 10.0 mi NW 5.8 mph - N/A   Scattered Clouds
8:53 PM 93.0 °F 90.6 °F 53.1 °F 26% 29.79 in 10.0 mi WNW 5.8 mph - N/A   Clear
9:53 PM 91.0 °F 88.9 °F 55.0 °F 29% 29.81 in 10.0 mi NW 8.1 mph - N/A   Clear
10:53 PM 88.0 °F 86.9 °F 57.9 °F 36% 29.82 in 10.0 mi NW 8.1 mph - N/A   Clear
11:53 PM 86.0 °F 84.7 °F 55.9 °F 36% 29.83 in 10.0 mi NW 5.8 mph - N/A   Clear